Location: Newark
(7.0858°N, 171.3717°E)
Time: 03:22:10
(UTC+00:00)

Vanguard 2 - Pass Details

Date: 25 November 2020
Orbit: 553 x 2937 km, 32.9° (Epoch: 26 January)

Event Time Altitude Azimuth Distance (km) Brightness Sun altitude
Rises 05:36:07 0° 319° (NW) 3,321 11.1 8.0°
Reaches altitude 10° 05:38:20 10° 327° (NNW) 2,597 10.4 7.5°
Maximum altitude 05:44:16 42° 37° (NE) 1,698 9.0 6.1°
Drops below altitude 10° 05:53:54 10° 105° (ESE) 4,187 10.8 3.9°
Sets 05:58:26 0° 111° (ESE) 5,596 11.5 2.8°
